DW5567 Weather Reports


Display with metric or nautical units.
time (UTC)temp
F
wind
direction
speed
MPH
gust
MPH
rain 1hr
in
rain 24hr
in
rain mn
in
humidity
%
barometer
mb
20260905143003 86 188 0.0 1.0 0.00 0.10 0.01 91 1015.4
20260905141612 83 195 0.0 0.0 0.00 0.10 0.01 94 1015.4
20260905140107 81 195 0.0 0.0 0.00 0.10 0.01 94 1015.4
20260905134558 79 195 0.0 0.0 0.01 0.11 0.01 94 1015.3
20260905133059 78 195 0.0 0.0 0.01 0.11 0.01 94 1015.4
20260905131615 77 195 0.0 0.0 0.01 0.11 0.01 94 1015.4
20260905130057 77 195 0.0 0.0 0.01 0.11 0.01 94 1015.4
20260905124556 77 195 0.0 0.0 0.00 0.12 0.00 94 1015.4
20260905123056 0 0.0 0.0 0.00 0.12 0.00 1015.5
20260905121554 0 0.0 0.0 0.00 0.12 0.00 1015.9
20260905120050 0 0.0 0.0 0.00 0.12 0.00 1015.4
20260905114550 0 0.0 0.0 0.00 0.47 0.00 1014.9
20260905113043 0 0.0 0.0 0.00 0.47 0.00 1015.0
20260905111542 0 0.0 0.0 0.00 0.47 0.00 1014.6
20260905110032 0 0.0 0.0 0.00 0.47 0.00 1014.6
20260905104535 0 0.0 0.0 0.00 0.47 0.00 1014.6
20260905103024 0 0.0 0.0 0.00 0.47 0.00 1014.4
20260905101519 0 0.0 0.0 0.00 0.47 0.00 1014.2
20260905100014 0 0.0 0.0 0.00 0.47 0.00 1013.9
20260905094510 0 0.0 0.0 0.00 0.47 0.00 1014.0
20260905093005 0 0.0 0.0 0.00 0.47 0.00 1014.0
20260905091502 0 0.0 0.0 0.00 0.47 0.00 1013.7
20260905090129 0 0.0 0.0 0.00 0.47 0.00 1013.9
20260905084552 0 0.0 0.0 0.00 0.47 0.00 1013.9
20260905083052 0 0.0 0.0 0.00 0.47 0.00 1014.2
20260905081552 0 0.0 0.0 0.00 0.47 0.00 1014.2
20260905080046 0 0.0 0.0 0.00 0.47 0.00 1014.3
20260905074535 0 0.0 0.0 0.00 0.47 0.00 1014.3
20260905073031 0 0.0 0.0 0.00 0.47 0.00 1014.2
20260905071527 0 0.0 0.0 0.00 0.47 0.00 1014.0
20260905070022 76 65 0.0 0.0 0.00 0.47 0.00 94 1014.3
20260905064519 77 65 0.0 0.0 0.00 0.47 0.00 94 1014.6
20260905063016 77 65 0.0 0.0 0.00 0.47 0.00 94 1014.8
20260905061516 77 65 0.0 0.0 0.00 0.47 0.00 94 1014.9
20260905060012 77 65 0.0 0.0 0.00 0.47 0.00 94 1015.1
20260905054510 77 65 0.0 0.0 0.00 0.47 0.00 94 1015.3
20260905053008 77 65 0.0 0.0 0.00 0.47 0.00 94 1015.5
20260905051513 77 65 0.0 0.0 0.00 0.47 0.00 94 1015.5
20260905050002 77 65 0.0 0.0 0.00 0.47 0.00 94 1015.8
20260905044502 77 65 0.0 0.0 0.00 0.47 0.00 94 1015.7
20260905043059 77 65 0.0 0.0 0.00 0.47 0.00 94 1015.7
20260905041557 77 65 0.0 0.0 0.00 0.47 0.00 94 1015.8
20260905040054 77 65 0.0 0.0 0.00 0.47 0.00 94 1015.9
20260905034552 78 65 0.0 0.0 0.00 0.47 0.47 94 1016.0
20260905033053 78 65 0.0 0.0 0.00 0.47 0.47 94 1016.0
20260905031558 77 65 0.0 0.0 0.00 0.47 0.47 94 1016.1
20260905030046 77 65 0.0 0.0 0.00 0.47 0.47 94 1016.2
20260905024545 78 65 0.0 0.0 0.00 0.47 0.47 94 1016.2
20260905023045 77 65 0.0 0.0 0.00 0.47 0.47 94 1016.2
20260905021544 78 65 0.0 0.0 0.00 0.47 0.47 94 1016.3
20260905020043 78 65 0.0 0.0 0.00 0.47 0.47 94 1016.2
20260905014543 78 65 0.0 0.0 0.00 0.47 0.47 94 1016.0
20260905013043 78 65 0.0 0.0 0.00 0.47 0.47 94 1015.8
20260905011549 78 65 0.0 0.0 0.00 0.47 0.47 94 1015.6
20260905010050 78 65 0.0 0.0 0.00 0.47 0.47 94 1015.4
20260905004542 78 65 0.0 0.0 0.00 0.47 0.47 94 1015.5
20260905003040 78 65 0.0 0.0 0.00 0.47 0.47 94 1015.3
20260905001550 79 65 0.0 0.0 0.00 0.47 0.47 93 1015.0
20260905000055 79 65 0.0 0.0 0.00 0.47 0.47 93 1014.7
20260904234540 79 65 0.0 0.0 0.00 0.47 0.47 93 1014.5
20260904233040 79 65 0.0 0.0 0.00 0.47 0.47 93 1014.5
20260904231547 79 65 0.0 0.0 0.00 0.47 0.47 93 1014.6
20260904230052 80 65 0.0 0.0 0.00 0.47 0.47 93 1014.8
20260904224536 80 65 0.0 0.0 0.00 0.47 0.47 93 1014.9
20260904223048 80 65 0.0 0.0 0.00 0.47 0.47 93 1014.8
20260904221537 80 65 0.0 0.0 0.00 0.47 0.47 93 1015.0
20260904220042 80 350 0.0 0.0 0.00 0.47 0.47 93 1015.1
20260904214536 80 231 0.0 0.0 0.00 1.15 0.47 93 1015.1
20260904213035 80 198 0.0 0.0 0.00 1.15 0.47 93 1015.1
20260904211534 79 198 0.0 0.0 0.00 1.15 0.47 93 1015.1
20260904210038 79 198 0.0 0.0 0.00 1.15 0.47 93 1015.1
20260904204533 78 198 0.0 0.0 0.01 1.23 0.47 93 1015.2
20260904203034 78 198 0.0 0.0 0.02 1.23 0.47 93 1015.3
20260904201536 78 198 0.0 0.0 0.04 1.23 0.47 93 1015.6
20260904200048 78 198 0.0 0.0 0.06 1.23 0.47 93 1015.8
20260904194541 78 199 0.0 0.0 0.06 1.22 0.46 93 1016.2
20260904193030 78 198 0.0 0.0 0.06 1.21 0.45 93 1016.2
20260904191530 78 198 0.0 0.0 0.04 1.19 0.43 92 1016.4
20260904190029 79 198 0.0 0.0 0.03 1.17 0.41 92 1016.2
20260904184547 79 198 0.0 0.0 0.02 1.15 0.40 92 1016.2
20260904183035 79 198 0.0 0.0 0.01 1.14 0.39 91 1016.5
20260904181530 79 198 0.0 0.0 0.01 1.14 0.39 90 1016.5
20260904180027 79 198 0.0 0.0 0.00 1.13 0.38 88 1016.6
20260904174557 79 210 0.0 0.0 0.00 1.13 0.38 87 1016.5
20260904173027 80 235 0.0 0.0 0.00 1.13 0.38 88 1016.6
20260904171524 81 218 0.0 1.0 0.00 1.13 0.38 85 1017.1
20260904170039 83 197 0.0 1.0 0.00 1.13 0.38 83 1016.7
20260904164522 86 162 0.0 1.0 0.00 1.13 0.38 87 1016.8
20260904163018 86 65 0.0 0.0 0.00 1.13 0.38 90 1016.9
20260904161518 84 64 0.0 0.0 0.00 1.13 0.38 93 1016.9
20260904160011 82 64 0.0 0.0 0.00 1.13 0.38 93 1017.0
20260904154508 82 64 0.0 0.0 0.00 1.19 0.38 93 1017.2
20260904153009 81 64 0.0 0.0 0.00 1.19 0.38 94 1017.1
20260904151503 80 64 0.0 0.0 0.00 1.19 0.38 94 1017.0
20260904150002 79 64 0.0 0.0 0.00 1.19 0.38 94 1016.8
20260904144601 78 64 0.0 0.0 0.01 1.20 0.38 94 1016.7